FW3754 Weather Reports


Display with metric or nautical units.
time (UTC)temp
F
wind
direction
speed
MPH
gust
MPH
rain 1hr
in
rain 24hr
in
rain mn
in
humidity
%
barometer
mb
20260506160031 90 200 4.0 0.0 0.00 0.00 0.00 60 1016.6
20260506154517 90 181 4.0 0.0 0.00 0.00 0.00 62 1016.7
20260506153012 89 144 2.0 0.0 0.00 0.00 0.00 61 1016.6
20260506151509 87 207 3.0 0.0 0.00 0.00 0.00 67 1016.7
20260506150005 86 163 2.0 0.0 0.00 0.00 0.00 69 1016.5
20260506144503 86 172 4.0 0.0 0.00 0.00 0.00 69 1016.5
20260506143002 85 191 4.0 0.0 0.00 0.00 0.00 69 1016.4
20260506141558 85 192 4.0 0.0 0.00 0.00 0.00 71 1016.2
20260506140056 84 190 3.0 0.0 0.00 0.00 0.00 73 1016.2
20260506134552 82 178 4.0 0.0 0.00 0.00 0.00 77 1016.2
20260506133048 80 210 2.0 0.0 0.00 0.00 0.00 80 1016.1
20260506131557 79 182 4.0 0.0 0.00 0.00 0.00 82 1016.0
20260506130051 78 200 4.0 0.0 0.00 0.00 0.00 85 1015.9
20260506124538 77 196 3.0 0.0 0.00 0.00 0.00 87 1015.9
20260506123039 77 199 3.0 0.0 0.00 0.00 0.00 88 1016.0
20260506121537 75 199 2.0 0.0 0.00 0.00 0.00 91 1015.9
20260506120035 74 206 1.0 0.0 0.00 0.00 0.00 93 1015.8
20260506114533 74 198 0.0 0.0 0.00 0.00 0.00 94 1015.7
20260506113034 73 196 0.0 0.0 0.00 0.00 0.00 94 1015.4
20260506111532 72 200 0.0 0.0 0.00 0.00 0.00 94 1015.3
20260506110034 72 200 0.0 0.0 0.00 0.00 0.00 93 1015.2
20260506104531 72 200 0.0 0.0 0.00 0.00 0.00 93 1015.0
20260506103037 72 200 0.0 0.0 0.00 0.00 0.00 93 1014.9
20260506101530 72 199 0.0 0.0 0.00 0.00 0.00 93 1014.9
20260506100035 72 199 0.0 0.0 0.00 0.00 0.00 92 1014.7
20260506094535 72 199 0.0 0.0 0.00 0.00 0.00 92 1014.7
20260506093034 72 200 0.0 0.0 0.00 0.00 0.00 92 1014.7
20260506091528 73 200 0.0 0.0 0.00 0.00 0.00 91 1014.5
20260506090025 73 199 0.0 0.0 0.00 0.00 0.00 91 1014.4
20260506084525 73 199 0.0 0.0 0.00 0.00 0.00 90 1014.5
20260506083023 73 199 0.0 0.0 0.00 0.00 0.00 90 1014.5
20260506081526 73 200 0.0 0.0 0.00 0.00 0.00 90 1014.5
20260506073020 74 199 0.0 0.0 0.00 0.00 0.00 89 1014.3
20260506071520 74 199 0.0 0.0 0.00 0.00 0.00 88 1014.4
20260506061515 75 194 0.0 0.0 0.00 0.00 0.00 85 1014.7
20260506044504 76 197 2.0 0.0 0.00 0.00 0.00 83 1015.3
20260506043002 76 209 1.0 0.0 0.00 0.00 0.00 83 1015.4
20260506041504 77 176 1.0 0.0 0.00 0.00 0.00 82 1015.5
20260506040059 77 181 1.0 0.0 0.00 0.00 0.00 83 1015.4
20260506034557 76 194 2.0 0.0 0.00 0.00 0.00 83 1015.4
20260506033057 76 186 2.0 0.0 0.00 0.00 0.00 83 1015.5
20260506031558 76 179 0.0 0.0 0.00 0.00 0.00 83 1015.4
20260506030054 76 186 0.0 0.0 0.00 0.00 0.00 82 1015.3
20260506024559 77 163 1.0 0.0 0.00 0.00 0.00 81 1015.1
20260506023055 77 186 1.0 0.0 0.00 0.00 0.00 81 1014.9
20260506021550 76 186 2.0 0.0 0.00 0.00 0.00 81 1014.9
20260506020049 77 157 1.0 0.0 0.00 0.00 0.00 80 1014.7
20260506014548 77 188 3.0 0.0 0.00 0.00 0.00 79 1014.6
20260506013049 77 128 2.0 0.0 0.00 0.00 0.00 79 1014.4
20260506011546 78 170 2.0 0.0 0.00 0.00 0.00 79 1014.3
20260506010048 77 185 4.0 0.0 0.00 0.00 0.00 79 1014.4
20260506004545 78 175 2.0 0.0 0.00 0.00 0.00 79 1014.3
20260506003045 78 144 3.0 0.0 0.00 0.00 0.00 78 1014.4
20260506001546 78 168 3.0 0.0 0.00 0.00 0.00 78 1014.2
20260506000043 79 171 3.0 0.0 0.00 0.00 0.00 77 1014.2
20260505234548 79 182 3.0 0.0 0.00 0.00 0.00 77 1013.9
20260505233042 80 170 4.0 0.0 0.00 0.00 0.00 76 1013.6
20260505231551 81 154 4.0 0.0 0.00 0.00 0.00 75 1013.3
20260505230053 81 162 3.0 0.0 0.00 0.00 0.00 74 1013.3
20260505224541 82 186 2.0 0.0 0.00 0.00 0.00 73 1013.2
20260505223040 82 190 3.0 0.0 0.00 0.00 0.00 73 1013.3
20260505221540 82 188 4.0 0.0 0.00 0.00 0.00 73 1013.3
20260505220038 84 207 4.0 0.0 0.00 0.00 0.00 70 1013.2
20260505214538 84 197 3.0 0.0 0.00 0.00 0.00 71 1013.0
20260505213047 85 127 5.0 0.0 0.00 0.00 0.00 69 1012.9
20260505211537 87 185 5.0 0.0 0.00 0.00 0.00 66 1012.7
20260505210037 86 169 3.0 0.0 0.00 0.00 0.00 70 1012.7
20260505204536 85 121 4.0 0.0 0.00 0.00 0.00 67 1012.7
20260505203036 87 188 3.0 0.0 0.00 0.00 0.00 64 1012.6
20260505201537 87 203 5.0 0.0 0.00 0.00 0.00 63 1012.8
20260505200035 88 158 3.0 0.0 0.00 0.00 0.00 62 1013.0
20260505194534 87 195 5.0 0.0 0.00 0.00 0.00 64 1013.0
20260505193034 87 183 3.0 0.0 0.00 0.00 0.00 62 1013.3
20260505191534 88 196 5.0 0.0 0.00 0.00 0.00 62 1013.4
20260505190032 89 169 3.0 0.0 0.00 0.00 0.00 59 1013.5
20260505184532 89 228 3.0 0.0 0.00 0.00 0.00 61 1013.5
20260505183036 91 197 4.0 0.0 0.00 0.00 0.00 58 1013.6
20260505181528 90 214 5.0 0.0 0.00 0.00 0.00 60 1013.7
20260505180043 89 159 4.0 0.0 0.00 0.00 0.00 62 1013.9
20260505174525 88 174 4.0 0.0 0.00 0.00 0.00 63 1013.9
20260505173025 87 204 4.0 0.0 0.00 0.00 0.00 67 1014.0
20260505171529 88 184 5.0 0.0 0.00 0.00 0.00 66 1014.1
20260505170024 86 130 3.0 0.0 0.00 0.00 0.00 70 1014.1
20260505164523 86 215 4.0 0.0 0.00 0.00 0.00 67 1014.3
20260505163027 83 115 4.0 0.0 0.00 0.00 0.00 75 1014.5
20260505161520 82 120 5.0 0.0 0.00 0.00 0.00 78 1014.4